Track ONEWEB-0257 now! 10-day predictions ONEWEB-0257 is classified as:
1 48975U 21060J 22142.91668981 .00045767 00000-0 11913+0 0 9994 2 48975 87.9115 164.6766 0002134 81.4785 332.8622 13.16569936 45302